This demonstration page uses our WeatherBlox Daily Observations layout. Learn more.

Left ArrowRight Arrow

39.12711, -84.51439

Hourly Observations for May 11, 2016

Temp ( °F °C ) Dew Point ( °F °C ) Humidity (%) Winds ( mph kmh ) Pressure ( in mb ) Visibility ( mi km ) Precip ( " mm )
12:53 am 00:53 Cloudy 60 15.6 60 15.6 100 100 Calm 30.02 1017 10 16 0.00 0.03
1:53 am 01:53 Cloudy 60 15.6 60 15.6 100 100 SW 5 7 30.02 1017 10 16 0.00 0.00
2:53 am 02:53 Cloudy 60 15.6 60 15.6 100 100 SSW 3 6 30.00 1016 10 16 0.00 0.03
3:31 am 03:31 Mostly Cloudy 59 15 59 15 100 100 SSW 3 6 30.00 1016 10 16 0.00 0.00
3:53 am 03:53 Cloudy 60 15.6 60 15.6 100 100 Calm 30.02 1017 10 16 0.00 0.00
4:53 am 04:53 Cloudy 60 15.6 60 15.6 100 100 Calm 30.03 1017 10 16 0.00 0.00
5:45 am 05:45 Mostly Cloudy 58 14.4 58 14.4 100 100 Calm 30.03 1017 7 11 0.00 0.00
5:53 am 05:53 Cloudy with Mist and Fog 59 15 59 15 100 100 Calm 30.04 1017 5 8 0.00 0.00
6:07 am 06:07 Cloudy 58 14.4 58 14.4 100 100 Calm 30.06 1018 8 13 0.00 0.00
6:53 am 06:53 Cloudy 59 15 59 15 100 100 S 3 6 30.05 1018 9 14 0.00 0.00
7:53 am 07:53 Cloudy 60 15.6 60 15.6 100 100 S 3 6 30.07 1018 7 11 0.00 0.00
8:53 am 08:53 Cloudy 61 16.1 60 15.6 97 97 Calm 30.09 1019 10 16 0.00 0.00
11:50 am 11:50 Mostly Cloudy 66 19 63 17 88 88 Calm 30.06 1018 10 16 0.00 0.00
11:53 am 11:53 Cloudy 68 20 63 17.2 84 84 Calm 30.08 1019 10 16 0.00 0.00
12:53 pm 12:53 Mostly Cloudy 72 22.2 64 17.8 76 76 Calm 30.09 1019 8 13 0.00 0.00
2:53 pm 14:53 Mostly Sunny 77 25 65 18.3 66 66 Calm 30.06 1018 10 16 0.00 0.00
3:53 pm 15:53 Partly Cloudy 79 26.1 65 18.3 62 62 VRB 6 9 30.03 1017 10 16 0.00 0.00
4:53 pm 16:53 Mostly Cloudy 78 25.6 64 17.8 62 62 Calm 30.02 1017 10 16 0.00 0.00
5:53 pm 17:53 Mostly Sunny 81 27.2 65 18.3 58 58 VRB 7 11 30.01 1016 10 16 0.00 0.00
6:53 pm 18:53 Sunny 80 26.7 64 17.8 58 58 SSE 5 7 29.99 1016 10 16 0.00 0.00
7:53 pm 19:53 Mostly Sunny 74 23.3 69 20.6 85 85 Calm 30.01 1016 10 16 0.00 0.00
8:53 pm 20:53 Mostly Clear 71 21.7 67 19.4 87 87 NNE 3 6 30.02 1017 10 16 0.00 0.00
9:53 pm 21:53 Mostly Clear 68 20 66 18.9 93 93 Calm 30.02 1017 8 13 0.00 0.00
10:53 pm 22:53 Mostly Clear with Mist and Fog 66 18.9 66 18.9 100 100 Calm 30.02 1017 6 10 0.00 0.00
11:53 pm 23:53 Clear 69 20.6 64 17.8 84 84 SSW 9 15 30.03 1017 10 16 0.00 0.00

Powered by AerisWeather